AT&T T-16

Last updated on Fri Nov 07 2025 00:02:51 GMT+0000 (Coordinated Universal Time)

1 44333U 19034A 25310.15681890 -.00000105 00000+0 00000+0 0 9998 2 44333 0.0075 63.3904 0000200 132.5152 165.3367 1.00269072 23392
UTC large
Height (km)
Speed (km/s)
/
Latitude / Longitude
Inclination (degrees)
Orbital Period (minutes)
Azimuth
Elevation
Range (km)
Doppler Factor

Next 0 passes for location: London (51.5072 / 0.1276)

Sorry there are no passes over London.